Location: Cartignies
(50.0929°N, 3.8447°E)
Time: 14:47:00
(UTC+00:00)

UNK - Pass Details

Date: 12 January 2026
Orbit: 654 x 673 km, 98.4° (Epoch: 16 February)

Event Time Altitude Azimuth Distance (km) Brightness Sun altitude
Rises 17:40:26 0° 11° (N) 2,994 6.8 -14.4°
Reaches altitude 10° 17:42:41 10° 7° (N) 2,077 6.0 -14.8°
Maximum altitude 17:47:06 54° 290° (WNW) 796 4.4 -15.4°
Drops below altitude 10° 17:51:29 10° 214° (SSW) 2,061 6.9 -16.1°
Sets 17:53:43 0° 209° (SSW) 2,968 7.7 -16.5°
